Wind_Speed
24 23 21 19 15 17 14 17 19 18 19 16 14 11 12 11 10 13 13 16 19 18 18 15 14 13 14 16 17 17 14 14 14 13 14 13 13 14 14 14 14 14 15
26 25 22 21 18 16 16 18 20 19 18 16 14 12 12 13 13 13 13 14 17 15 17 13 14 14 16 15 16 15 16 14 12 13 12 12 13 12 13 13 13 13 14
27 28 24 20 19 15 16 19 19 18 18 16 16 13 12 12 12 13 14 17 17 14 16 15 13 15 15 16 14 14 13 12 12 11 10 11 11 11 11 12 11 12 12
23 29 26 20 20 16 17 21 18 18 18 16 16 14 13 13 12 13 14 16 17 15 14 17 15 16 16 14 17 13 11 10 10 9 10 10 10 10 10 10 11 10 11
24 29 28 23 20 18 19 21 19 19 19 18 16 15 12 13 12 13 14 17 18 17 14 19 17 18 14 16 17 15 6 9 9 8 8 9 9 9 9 9 9 9 9
26 28 28 25 22 20 22 20 21 19 20 21 17 13 11 10 12 13 14 19 21 18 15 19 21 16 14 19 17 13 10 9 8 8 7 7 8 8 8 7 8 8 8
29 28 28 28 25 23 26 21 22 22 20 19 19 9 6 9 10 11 15 17 20 21 18 20 21 18 15 18 16 9 12 10 8 7 7 7 6 7 7 6 6 6 6
30 30 30 29 28 26 26 24 25 24 19 23 9 9 1 2 7 10 14 18 21 20 20 20 22 20 18 20 15 11 9 12 11 8 7 6 6 5 5 5 5 5 5
32 32 33 31 31 30 31 28 27 30 22 22 19 7 2 3 2 7 10 18 21 23 21 22 23 22 19 19 17 15 12 10 11 10 8 7 6 6 4 4 4 4 4
33 33 33 33 32 33 34 32 30 31 29 28 18 10 7 8 3 1 8 13 15 18 21 22 25 25 22 21 19 17 14 12 10 10 9 8 7 6 5 4 3 3 2
34 34 33 35 33 35 36 36 33 34 34 33 30 19 11 9 7 3 2 9 17 21 23 24 25 25 23 22 21 20 16 13 11 11 11 9 8 6 5 5 4 2 1
34 32 34 37 35 34 37 37 36 37 39 35 37 33 27 12 8 5 2 3 10 13 22 24 24 24 23 22 22 23 20 14 11 13 13 12 10 8 6 6 6 5 2
33 35 36 37 37 35 40 38 37 38 41 40 37 38 34 31 20 18 7 4 6 17 16 24 26 27 26 25 25 25 23 20 14 13 15 15 14 14 10 8 8 6 5
35 36 38 39 41 38 38 37 38 39 40 42 41 38 39 35 30 25 17 10 1 6 11 13 29 31 31 29 28 28 26 23 21 17 17 17 16 17 15 12 10 12 10
32 32 34 38 41 41 39 38 39 40 42 43 44 42 41 39 35 31 25 21 15 4 5 19 23 28 34 32 32 31 29 26 26 23 20 19 19 22 21 18 15 13 12
28 29 30 32 37 38 38 39 38 36 38 40 41 41 42 40 36 33 28 26 23 20 4 11 18 30 25 32 32 31 31 29 26 25 23 24 25 25 24 20 16 14 13
24 25 26 28 32 34 36 37 37 35 37 38 38 39 41 40 39 35 30 27 25 23 16 17 14 14 27 24 31 32 30 30 27 26 24 24 23 23 23 21 18 15 14
23 26 27 28 31 34 36 36 34 31 35 34 39 39 38 37 37 35 33 32 29 28 25 22 18 15 16 21 24 27 30 30 27 25 23 22 22 24 23 20 17 15 14
20 20 26 30 31 31 35 36 35 34 36 34 33 36 36 34 33 34 32 33 32 32 29 25 19 15 16 19 20 23 24 26 25 25 23 22 22 22 20 18 15 15 14
12 15 18 22 27 29 31 31 33 31 32 32 32 33 31 30 31 30 30 33 32 30 30 27 23 18 17 18 19 20 21 25 25 25 22 23 23 22 21 18 18 15 14
10 9 10 13 16 20 23 26 28 28 31 29 30 30 26 25 25 27 29 30 29 27 26 27 22 17 16 15 20 20 24 24 25 26 24 25 26 26 25 21 17 14 17
8 8 8 10 13 15 16 19 22 27 29 29 30 28 24 24 25 25 24 25 21 26 27 26 21 20 27 25 22 23 22 17 7 23 25 29 29 29 27 22 17 16 20
10 8 9 10 12 13 13 14 19 21 25 27 26 24 21 18 20 22 22 22 22 23 23 24 25 30 24 31 29 23 23 21 17 14 24 22 28 29 26 23 18 18 18
11 9 7 6 8 10 12 13 14 17 17 17 19 20 19 16 16 18 21 21 23 22 24 23 23 24 24 23 23 27 28 24 20 16 16 10 14 18 19 18 18 18 18
16 16 16 14 12 8 9 12 12 16 16 16 16 16 18 18 18 16 16 18 18 20 18 20 21 24 24 24 22 22 21 18 10 13 20 11 9 10 11 13 16 18 16
19 20 21 19 17 17 11 9 8 8 9 10 12 12 13 15 15 19 18 23 23 24 23 22 22 20 17 16 17 19 24 24 12 8 17 16 11 9 4 9 13 14 13
Wind_Direction
177 181 182 182 180 187 185 171 164 158 160 160 157 170 162 170 163 137 139 145 136 133 124 124 125 125 133 133 123 118 121 105 96 99 97 96 94 93 90 87 84 82 80
182 183 185 189 200 204 190 177 168 162 158 160 172 169 165 162 162 160 153 152 146 137 127 129 134 137 142 140 122 119 116 112 108 109 106 105 101 97 94 89 85 81 80
188 186 186 189 193 192 185 175 170 169 162 166 169 174 170 169 169 169 164 157 150 145 140 139 144 153 153 139 133 131 117 112 118 116 113 109 106 103 98 95 90 85 79
194 189 189 188 188 194 189 178 176 171 169 178 177 173 176 174 170 167 168 166 159 153 156 152 153 159 145 152 146 131 118 123 125 126 124 120 115 108 102 97 94 88 85
195 191 192 190 191 192 187 182 179 179 179 178 175 168 173 178 182 180 180 179 175 173 170 165 167 156 160 151 143 139 138 143 139 140 138 129 123 117 109 102 97 90 81
197 194 193 193 192 193 186 185 186 181 179 175 174 163 173 187 198 197 191 191 184 182 182 175 170 168 174 161 153 143 143 157 157 157 151 143 137 129 119 111 103 95 89
202 199 196 197 196 196 189 187 183 178 167 171 165 150 173 195 205 203 198 198 194 185 187 186 183 176 176 173 173 183 158 168 170 174 170 160 154 144 130 118 104 99 92
207 205 203 201 199 195 193 191 188 175 175 175 154 137 136 199 218 206 197 197 197 196 196 199 196 188 181 188 190 191 190 172 175 186 184 183 175 166 147 132 110 97 86
210 210 207 206 203 200 199 199 195 189 178 183 167 162 143 213 167 225 213 213 204 204 205 205 203 198 196 200 201 194 197 185 180 183 189 197 201 192 183 143 116 95 81
213 214 213 210 209 206 206 206 205 200 197 195 195 194 169 152 170 235 228 220 215 220 214 208 207 205 202 204 212 209 204 205 193 189 198 206 217 211 202 186 154 128 93
214 213 214 214 213 213 213 213 208 208 207 204 200 196 182 174 156 127 192 217 222 225 224 220 215 208 209 212 216 218 215 216 210 205 208 209 219 222 221 214 203 184 176
214 218 218 218 217 217 218 218 218 215 213 215 213 210 205 188 183 160 142 208 211 233 222 223 222 221 221 218 220 221 222 221 232 218 219 208 218 221 223 225 219 219 231
213 219 217 217 220 222 224 222 221 220 218 218 219 216 220 220 220 205 181 166 203 226 227 230 229 229 224 226 226 224 228 225 251 247 235 231 213 204 220 219 225 225 252
216 218 218 219 221 224 223 224 224 225 224 224 226 224 226 225 225 227 219 175 175 224 224 232 235 232 230 231 229 227 228 232 236 250 250 242 233 212 231 245 235 248 268
220 220 221 222 222 224 227 224 224 228 229 230 231 230 231 231 230 234 235 232 215 187 229 236 236 239 234 235 234 232 233 235 235 240 244 246 240 234 241 245 257 262 270
223 224 225 226 224 228 226 224 222 227 225 228 227 230 233 235 234 234 235 236 238 237 217 240 250 242 241 236 237 236 238 237 237 235 239 239 240 243 241 244 256 263 266
226 230 232 231 229 230 231 225 226 221 222 227 228 232 234 234 236 235 236 234 232 233 227 250 250 257 241 241 237 236 235 236 237 234 238 245 246 243 244 245 254 261 260
237 239 241 239 237 237 236 227 221 218 221 216 227 227 232 234 237 239 238 237 235 236 235 244 252 250 245 240 240 237 237 237 236 238 240 245 246 243 242 243 253 255 260
236 235 240 240 239 238 235 232 225 218 224 221 221 225 232 231 233 236 239 240 236 237 236 238 246 245 242 239 238 233 233 235 233 234 235 241 242 240 236 241 248 256 263
221 226 231 235 234 232 232 229 223 224 223 225 224 230 232 233 238 237 239 241 240 234 235 234 241 238 236 236 236 238 234 232 231 229 228 232 236 235 232 245 251 256 265
212 215 220 228 233 234 232 230 234 229 223 223 227 234 233 240 251 250 243 242 240 237 233 228 228 225 221 218 223 234 234 237 231 228 224 225 229 234 244 246 244 250 263
187 198 211 224 226 232 238 239 236 222 225 230 230 236 237 241 249 248 250 250 254 242 232 227 219 221 231 230 232 234 229 219 230 231 227 231 230 239 245 242 242 243 253
187 203 218 222 226 233 237 236 228 230 231 234 233 229 222 231 244 246 247 248 250 252 250 247 229 237 234 246 245 231 229 226 221 226 219 227 236 240 244 242 243 245 249
137 152 171 206 218 230 227 222 220 224 228 228 229 229 228 228 239 244 242 241 239 242 243 245 248 257 259 258 255 256 247 237 236 231 215 210 229 233 242 237 239 246 252
100 107 112 115 124 123 194 204 210 216 224 225 228 229 229 231 231 237 236 241 240 245 244 245 249 250 249 250 251 240 222 200 209 218 213 208 207 211 224 234 239 241 241
83 93 95 97 93 99 108 129 157 183 197 210 214 214 224 227 242 257 252 238 240 250 253 248 243 244 247 246 241 238 234 202 187 197 210 192 187 187 190 231 231 238 242
Height
831 835 838 840 843 845 847 850 853 855 858 861 863 865 867 869 870 872 873 875 876 877 879 883 885 887 889 889 890 892 892 895 895 896 897 898 898 898 898 898 898 898 898
829 834 837 840 843 845 848 851 853 856 859 861 864 866 868 870 872 873 875 877 879 880 881 883 885 888 890 892 892 894 895 896 897 898 899 899 899 899 900 900 900 900 900
827 832 837 839 842 845 848 851 854 856 859 862 864 867 869 871 873 874 876 878 880 881 883 884 887 888 889 893 895 897 898 898 899 899 901 901 901 901 901 901 901 901 902
825 830 835 838 841 845 848 851 854 857 860 862 865 867 870 872 874 875 877 879 881 883 884 886 887 890 892 893 895 899 899 901 902 901 902 902 903 903 903 902 902 903 902
824 828 833 838 841 844 847 851 853 857 859 862 865 867 870 873 874 876 878 880 882 884 885 886 888 890 892 893 895 896 899 902 902 903 903 903 903 904 904 903 904 904 904
822 826 831 836 840 843 846 850 853 856 859 862 865 868 871 873 875 876 878 880 882 884 886 887 889 890 892 893 895 897 899 903 903 904 904 904 904 904 904 904 904 904 905
820 825 829 834 838 841 844 849 852 856 860 862 865 869 872 873 875 876 878 879 880 883 886 888 889 891 893 895 895 895 898 902 904 905 906 906 906 906 905 905 905 905 905
818 822 827 830 834 839 843 846 850 854 858 862 865 870 874 875 874 875 876 878 880 882 885 887 889 891 892 895 896 896 897 900 902 905 906 907 907 907 906 905 905 906 906
814 818 823 827 832 836 839 843 847 850 855 860 863 866 872 871 873 873 874 877 878 881 883 886 888 890 892 893 896 896 897 898 901 903 905 907 908 908 908 907 906 907 906
809 815 819 823 828 832 835 839 844 848 852 856 862 863 864 865 871 874 873 874 876 878 881 882 885 887 889 891 894 895 895 897 900 902 903 905 907 908 908 907 906 905 906
804 810 814 819 823 828 832 836 840 845 849 851 855 859 863 864 866 868 871 873 874 875 878 881 882 884 886 889 891 894 894 895 898 900 901 902 905 907 908 908 906 905 904
799 805 810 814 819 823 827 831 835 840 844 847 850 853 855 860 863 866 870 871 871 874 875 878 879 881 884 886 888 891 893 893 896 898 899 899 901 904 905 906 906 904 903
794 799 804 809 813 818 822 827 830 834 839 842 845 848 852 855 858 861 864 868 870 872 873 874 876 879 880 883 884 887 890 891 893 895 896 897 897 898 900 903 903 902 901
787 792 798 802 807 811 816 820 825 829 834 838 841 844 847 850 854 857 859 863 869 870 870 870 871 872 874 878 880 883 884 886 890 891 892 894 894 894 894 897 899 899 898
783 787 792 797 801 805 810 814 818 823 826 830 833 838 841 845 849 852 856 858 861 868 867 864 866 866 867 872 875 877 879 881 884 886 887 889 890 889 890 892 895 896 896
780 784 788 792 796 800 805 808 813 816 820 823 827 830 835 839 844 847 850 854 856 858 861 859 859 861 863 865 868 871 873 876 878 880 883 884 885 885 886 888 890 892 893
775 779 784 788 792 796 799 803 806 810 813 815 820 823 826 831 836 841 845 848 851 853 854 855 856 856 858 860 862 865 868 870 873 875 877 880 881 882 883 884 886 887 888
771 774 778 782 786 790 793 796 800 803 805 808 810 815 819 824 829 834 838 842 844 847 850 851 852 853 853 855 857 859 862 865 867 871 872 875 877 878 879 881 882 883 885
766 770 773 775 779 783 786 789 792 796 797 801 804 808 812 817 822 826 831 835 837 840 844 847 848 849 850 851 852 853 855 860 860 864 866 869 874 875 875 876 877 879 881
763 766 768 770 774 777 780 783 786 790 793 796 799 803 807 812 815 819 823 829 831 831 836 841 843 845 846 847 849 851 852 854 855 859 861 863 867 869 870 870 872 873 876
761 763 765 768 770 773 776 779 782 785 788 792 796 799 803 807 811 815 818 822 825 827 830 833 837 840 841 841 842 844 847 849 850 854 855 858 862 863 864 865 866 867 871
759 761 764 765 767 769 771 774 777 780 784 787 790 795 797 803 807 811 813 817 818 821 822 826 828 831 833 835 836 839 842 845 848 849 850 852 854 855 858 860 860 862 865
757 759 761 763 764 766 768 771 774 777 780 783 786 789 793 797 802 806 808 811 813 816 817 819 820 822 826 829 832 834 835 837 838 839 844 846 847 849 853 855 855 857 860
756 758 759 759 761 763 766 770 772 776 778 780 783 785 789 792 796 800 803 806 808 809 812 813 814 817 820 822 824 827 829 832 834 837 839 841 842 844 848 850 851 854 856
755 756 757 759 761 762 764 767 770 773 775 777 780 783 786 789 792 796 798 801 803 804 806 808 809 812 813 815 817 821 822 826 830 831 833 836 838 840 843 845 847 849 851
758 758 759 760 762 763 765 766 769 770 773 775 777 779 782 784 787 789 792 795 797 798 800 802 804 804 807 810 812 814 816 818 822 827 827 833 835 838 841 841 843 845 847